Погода в Советском

Россия / Вологодская область     59°55′27″N   42°43′07″E
В апреле 2022 года жителям России запретили посещать сайт meteo.paraplan.net по решению Генеральной прокуратуры. Аудитория сайта уменьшилась в 10 раз. Владельцы сайта не видят смысла в поддержке погодного сервера в таких условиях. Сайт будет закрыт в октябре.
темп.,
°C
ветер,
м/с
пор.,
м/с
влажн.,
%
обл.,
%
осадки,
мм/ч
давл.,
гПа
погр.,
м
4 октября, вт
вт400:00+12ююв41287100 0.0 1009758
03:00+10ю4118531 0.2 1012652
06:00+8ююв311940 0.0 1014367
09:00+10ююв413835 0.0 1014614
12:00+14ююв51171100 0.0 10151076
15:00+14ююв51172100 0.1 10151349
18:00+11юв41182100 0.1 1016619
21:00+9юв41290100 0.1 1016553
5 октября, ср
ср500:00+9юв41094100 0.0 1015523
03:00+10вюв41091100 0.1 1014522
06:00+8юв41191100 0.5 1013534
09:00+8юв3991100 2.5 1013518
12:00+8юв3796100 0.7 1012423
15:00+10юв3792100 1.1 1012511
18:00+9ююв2595100 0.9 1012243
21:00+7ююз1495100 3.8 1013196
6 октября, чт
чт600:00+7ю1193100 0.3 101317
03:00+7зсз1193100 0.5 101222
06:00+6зсз2394100 0.0 101383
09:00+8зсз1288100 0.0 1013189
12:00+10з247887 0.0 1013680
15:00+10зюз247196 0.1 10121088
18:00+8юз378244 0.0 1012259
21:00+5ююз311905 0.0 1011315
7 октября, пт
пт700:00+6ю41391100 0.3 1008503
03:00+7ююз51394100 1.0 1005800
06:00+9зюз41293100 1.2 1004884
09:00+10з4108490 1.4 10051018
12:00+10зюз51081100 0.3 10061030
15:00+10з6128149 0.7 10061223
18:00+8з4128888 0.3 1008708
21:00+7з5139166 0.3 1010700
8 октября, сб
сб800:00+7з5139271 0.0 1012629
03:00+7з41085100 0.1 1014894
06:00+7зюз398768 0.1 1015430
09:00+7зюз499087 0.1 1016437
12:00+9юз488599 0.0 1016668
15:00+11юз5978100 0.0 1014989
18:00+11юз41076100 0.0 1014774
21:00+8юз41391100 0.0 1013618